Location: Coupvray
(48.8929°N, 2.7967°E)
Time: 07:31:00
(UTC+00:00)

Cosmos 1943 - Pass Details

Date: 14 July 2020
Orbit: 835 x 848 km, 71.0° (Epoch: 14 August)

Event Time Altitude Azimuth Distance (km) Brightness Sun altitude
Exits shadow 00:19:33 14° 244° (WSW) 2,215 5.1 -19.3°
Maximum altitude 00:24:05 39° 309° (NW) 1,251 4.3 -19.2°
Drops below altitude 10° 00:29:22 10° 17° (NNE) 2,468 6.8 -19.1°
Sets 00:31:59 0° 26° (NNE) 3,404 7.8 -19.0°
